AC2JK-WX Weather Reports


Display with metric or nautical units.
time (UTC)temp
F
wind
direction
speed
MPH
gust
MPH
rain 1hr
in
rain 24hr
in
rain mn
in
humidity
%
barometer
mb
20260905174710 78 307 0.0 1.0 0.00 0.00 0.00 53 1015.0
20260905174209 79 9 2.0 5.0 0.00 0.00 0.00 49 1015.0
20260905173709 79 264 3.0 6.0 0.00 0.00 0.00 49 1015.0
20260905173209 79 229 2.0 3.0 0.00 0.00 0.00 51 1015.0
20260905172709 79 313 3.0 4.0 0.00 0.00 0.00 49 1015.0
20260905172209 79 124 0.0 3.0 0.00 0.00 0.00 56 1015.0
20260905171710 77 2 3.0 7.0 0.00 0.00 0.00 56 1015.0
20260905171209 75 45 0.0 2.0 0.00 0.00 0.00 60 1015.0
20260905170709 76 230 0.0 6.0 0.00 0.00 0.00 58 1015.0
20260905170210 76 335 0.0 4.0 0.00 0.00 0.00 57 1015.0
20260905165709 76 356 3.0 4.0 0.00 0.00 0.00 57 1015.0
20260905165209 76 43 1.0 1.0 0.00 0.00 0.00 57 1015.0
20260905164709 77 348 1.0 3.0 0.00 0.00 0.00 58 1015.0
20260905164209 78 295 1.0 4.0 0.00 0.00 0.00 55 1015.0
20260905163709 77 3 3.0 3.0 0.00 0.00 0.00 58 1015.0
20260905163224 78 16 4.0 4.0 0.00 0.00 0.00 56 1015.0
20260905162709 77 213 2.0 7.0 0.00 0.00 0.00 59 1016.0
20260905162209 76 316 4.0 8.0 0.00 0.00 0.00 57 1016.0
20260905161709 76 73 1.0 3.0 0.00 0.00 0.00 60 1016.0
20260905161210 76 344 3.0 4.0 0.00 0.00 0.00 61 1015.0
20260905160709 76 45 1.0 7.0 0.00 0.00 0.00 60 1016.0
20260905160209 76 32 3.0 5.0 0.00 0.00 0.00 58 1016.0
20260905155710 77 306 4.0 4.0 0.00 0.00 0.00 58 1016.0
20260905155209 76 353 1.0 4.0 0.00 0.00 0.00 63 1016.0
20260905154709 75 157 0.0 2.0 0.00 0.00 0.00 62 1016.0
20260905154209 74 136 1.0 5.0 0.00 0.00 0.00 64 1016.0
20260905153710 74 315 2.0 3.0 0.00 0.00 0.00 66 1016.0
20260905153209 75 353 0.0 2.0 0.00 0.00 0.00 64 1015.0
20260905152709 75 320 1.0 1.0 0.00 0.00 0.00 65 1016.0
20260905152209 74 207 0.0 4.0 0.00 0.00 0.00 66 1016.0
20260905151709 74 282 1.0 3.0 0.00 0.00 0.00 66 1016.0
20260905151209 75 190 1.0 4.0 0.00 0.00 0.00 65 1016.0
20260905150710 75 27 3.0 3.0 0.00 0.00 0.00 66 1016.0
20260905150209 74 296 3.0 3.0 0.00 0.00 0.00 67 1016.0
20260905145710 73 119 3.0 3.0 0.00 0.00 0.00 68 1016.0
20260905145209 73 355 2.0 3.0 0.00 0.00 0.00 68 1016.0
20260905144709 73 6 2.0 3.0 0.00 0.00 0.00 68 1016.0
20260905144210 73 7 2.0 2.0 0.00 0.00 0.00 70 1016.0
20260905143709 73 215 1.0 1.0 0.00 0.00 0.00 70 1016.0
20260905143210 72 321 3.0 4.0 0.00 0.00 0.00 71 1016.0
20260905142709 71 245 0.0 2.0 0.00 0.00 0.00 73 1016.0
20260905142209 71 190 0.0 3.0 0.00 0.00 0.00 74 1016.0
20260905141709 70 172 0.0 3.0 0.00 0.00 0.00 75 1016.0
20260905141210 70 357 2.0 6.0 0.00 0.00 0.00 74 1016.0
20260905140709 70 46 0.0 1.0 0.00 0.00 0.00 76 1016.0
20260905140210 70 224 2.0 2.0 0.00 0.00 0.00 76 1016.0
20260905135709 69 314 0.0 0.0 0.00 0.00 0.00 76 1016.0
20260905135210 69 265 2.0 3.0 0.00 0.00 0.00 78 1016.0
20260905134710 69 343 1.0 2.0 0.00 0.00 0.00 79 1016.0
20260905134209 69 55 3.0 3.0 0.00 0.00 0.00 80 1016.0
20260905133710 69 265 0.0 3.0 0.00 0.00 0.00 81 1016.0
20260905133209 68 17 1.0 3.0 0.00 0.00 0.00 81 1016.0
20260905132709 68 48 1.0 4.0 0.00 0.00 0.00 80 1016.0
20260905132209 68 358 4.0 4.0 0.00 0.00 0.00 82 1016.0
20260905131710 68 3 3.0 3.0 0.00 0.00 0.00 83 1016.0
20260905131210 67 270 0.0 0.0 0.00 0.00 0.00 85 1016.0
20260905130711 67 2 0.0 2.0 0.00 0.00 0.00 86 1016.0
20260905130209 66 352 0.0 2.0 0.00 0.00 0.00 87 1016.0
20260905125711 66 19 0.0 2.0 0.00 0.00 0.00 90 1016.0
20260905125210 65 339 3.0 4.0 0.00 0.00 0.00 92 1016.0
20260905124710 65 278 0.0 2.0 0.00 0.00 0.00 94 1016.0
20260905124209 65 340 0.0 0.0 0.00 0.00 0.00 95 1016.0
20260905123710 65 142 0.0 0.0 0.00 0.00 0.00 95 1016.0
20260905123209 64 56 0.0 2.0 0.00 0.00 0.00 96 1016.0
20260905122709 64 78 0.0 0.0 0.00 0.00 0.00 96 1016.0
20260905122209 64 10 0.0 3.0 0.00 0.00 0.00 96 1016.0
20260905121709 64 282 0.0 1.0 0.00 0.00 0.00 96 1016.0
20260905121211 63 68 0.0 1.0 0.00 0.00 0.00 97 1016.0
20260905120709 63 189 0.0 0.0 0.00 0.00 0.00 97 1016.0
20260905120209 63 114 1.0 1.0 0.00 0.00 0.00 97 1016.0
20260905115709 62 332 0.0 0.0 0.00 0.00 0.00 97 1016.0
20260905115209 62 169 0.0 1.0 0.00 0.00 0.00 97 1016.0
20260905114710 62 182 0.0 0.0 0.00 0.00 0.00 96 1016.0
20260905114210 62 149 0.0 0.0 0.00 0.00 0.00 97 1016.0
20260905113709 62 154 0.0 0.0 0.00 0.00 0.00 96 1016.0
20260905113210 62 148 0.0 0.0 0.00 0.00 0.00 96 1016.0
20260905112710 62 160 0.0 0.0 0.00 0.00 0.00 96 1016.0
20260905112210 62 149 0.0 0.0 0.00 0.00 0.00 96 1015.0
20260905111709 62 147 0.0 0.0 0.00 0.00 0.00 96 1015.0
20260905111209 62 157 0.0 0.0 0.00 0.00 0.00 96 1015.0
20260905110709 62 149 0.0 0.0 0.00 0.00 0.00 96 1015.0
20260905110209 62 150 0.0 0.0 0.00 0.00 0.00 96 1015.0
20260905105709 62 125 0.0 0.0 0.00 0.00 0.00 96 1015.0
20260905105210 62 146 0.0 0.0 0.00 0.00 0.00 96 1015.0
20260905104710 62 165 0.0 0.0 0.00 0.00 0.00 96 1015.0
20260905104209 62 153 0.0 0.0 0.00 0.00 0.00 96 1015.0
20260905103710 62 157 0.0 0.0 0.00 0.00 0.00 96 1015.0
20260905103209 62 151 0.0 0.0 0.00 0.00 0.00 96 1015.0
20260905102710 62 158 0.0 0.0 0.00 0.00 0.00 96 1015.0
20260905102209 62 162 0.0 0.0 0.00 0.00 0.00 96 1015.0
20260905101710 62 154 0.0 0.0 0.00 0.00 0.00 96 1015.0
20260905101209 62 160 0.0 0.0 0.00 0.00 0.00 96 1015.0
20260905100709 62 87 0.0 0.0 0.00 0.00 0.00 96 1015.0
20260905100209 62 139 0.0 0.0 0.00 0.00 0.00 96 1015.0
20260905095709 62 213 0.0 1.0 0.00 0.00 0.00 96 1015.0
20260905095209 62 18 0.0 1.0 0.00 0.00 0.00 95 1015.0
20260905094709 62 104 0.0 0.0 0.00 0.00 0.00 95 1015.0
20260905094209 62 150 0.0 0.0 0.00 0.00 0.00 95 1015.0
20260905093709 62 137 0.0 0.0 0.00 0.00 0.00 95 1015.0
20260905093209 62 144 0.0 0.0 0.00 0.00 0.00 95 1015.0
20260905092712 62 144 0.0 0.0 0.00 0.00 0.00 95 1015.0
20260905092209 62 144 0.0 0.0 0.00 0.00 0.00 95 1015.0
20260905091710 62 144 0.0 0.0 0.00 0.00 0.00 95 1015.0
20260905091212 63 144 0.0 0.0 0.00 0.00 0.00 95 1015.0
20260905090709 63 143 0.0 0.0 0.00 0.00 0.00 95 1015.0
20260905090209 63 138 0.0 0.0 0.00 0.00 0.00 95 1015.0
20260905085709 63 119 0.0 0.0 0.00 0.00 0.00 94 1014.0
20260905085210 63 116 0.0 0.0 0.00 0.00 0.00 94 1014.0
20260905084709 63 155 0.0 0.0 0.00 0.00 0.00 94 1014.0
20260905084210 63 99 0.0 0.0 0.00 0.00 0.00 94 1014.0
20260905083709 63 90 0.0 0.0 0.00 0.00 0.00 94 1014.0
20260905083209 63 125 0.0 0.0 0.00 0.00 0.00 94 1014.0
20260905082709 63 138 0.0 0.0 0.00 0.00 0.00 94 1014.0
20260905082209 63 107 0.0 0.0 0.00 0.00 0.00 94 1014.0
20260905081709 64 149 0.0 0.0 0.00 0.00 0.00 94 1014.0
20260905081209 64 123 0.0 0.0 0.00 0.00 0.00 94 1014.0
20260905080709 64 155 0.0 0.0 0.00 0.00 0.00 93 1014.0
20260905080209 64 175 0.0 0.0 0.00 0.00 0.00 93 1014.0
20260905075710 64 138 0.0 0.0 0.00 0.00 0.00 93 1014.0
20260905075209 64 165 0.0 0.0 0.00 0.00 0.00 93 1014.0
20260905074711 64 170 0.0 0.0 0.00 0.00 0.00 93 1014.0
20260905074210 64 133 0.0 0.0 0.00 0.00 0.00 93 1015.0
20260905073710 64 156 0.0 0.0 0.00 0.00 0.00 92 1015.0
20260905073210 64 169 0.0 0.0 0.00 0.00 0.00 92 1015.0
20260905072709 64 156 0.0 0.0 0.00 0.00 0.00 92 1015.0
20260905072210 64 151 0.0 0.0 0.00 0.00 0.00 92 1015.0
20260905071709 64 137 0.0 0.0 0.00 0.00 0.00 92 1015.0
20260905071209 64 152 0.0 0.0 0.00 0.00 0.00 91 1015.0
20260905070710 64 156 0.0 0.0 0.00 0.00 0.00 91 1015.0
20260905070209 65 148 0.0 0.0 0.00 0.00 0.00 90 1015.0
20260905065709 65 152 0.0 0.0 0.00 0.00 0.00 90 1015.0
20260905065209 65 149 0.0 0.0 0.00 0.00 0.00 90 1015.0
20260905064710 65 130 0.0 0.0 0.00 0.00 0.00 89 1015.0
20260905064210 65 156 0.0 0.0 0.00 0.00 0.00 89 1015.0
20260905063709 65 153 0.0 0.0 0.00 0.00 0.00 89 1015.0
20260905063209 65 149 0.0 0.0 0.00 0.00 0.00 89 1015.0
20260905062709 66 170 0.0 0.0 0.00 0.00 0.00 89 1015.0
20260905062209 66 175 0.0 0.0 0.00 0.00 0.00 89 1015.0
20260905061709 66 113 0.0 0.0 0.00 0.00 0.00 88 1015.0
20260905061209 66 167 0.0 0.0 0.00 0.00 0.00 88 1015.0
20260905060709 66 155 0.0 0.0 0.00 0.00 0.00 88 1015.0
20260905060210 66 152 0.0 0.0 0.00 0.00 0.00 88 1015.0
20260905055709 66 144 0.0 0.0 0.00 0.00 0.00 88 1015.0
20260905055209 66 259 0.0 0.0 0.00 0.00 0.00 88 1015.0
20260905054710 66 159 0.0 0.0 0.00 0.00 0.00 87 1015.0
20260905054209 66 152 0.0 0.0 0.00 0.00 0.00 86 1015.0
20260905053709 66 164 0.0 0.0 0.00 0.00 0.00 87 1015.0
20260905053209 66 156 0.0 0.0 0.00 0.00 0.00 87 1015.0
20260905052709 66 136 0.0 0.0 0.00 0.00 0.00 87 1015.0
20260905052209 66 162 0.0 0.0 0.00 0.00 0.00 87 1015.0
20260905051709 66 160 0.0 1.0 0.00 0.00 0.00 86 1015.0
20260905051210 66 130 0.0 0.0 0.00 0.00 0.00 86 1015.0
20260905050709 66 151 0.0 0.0 0.00 0.00 0.00 86 1015.0
20260905050210 67 154 0.0 0.0 0.00 0.00 0.00 86 1015.0
20260905045710 67 108 0.0 0.0 0.00 0.00 0.00 84 1015.0
20260905045209 67 100 0.0 0.0 0.00 0.00 0.00 84 1015.0
20260905044709 67 150 0.0 0.0 0.00 0.00 0.00 83 1015.0
20260905044209 67 110 0.0 0.0 0.00 0.00 0.00 83 1015.0
20260905043710 68 122 0.0 0.0 0.00 0.00 0.00 83 1015.0
20260905043210 68 117 0.0 0.0 0.00 0.00 0.00 82 1015.0
20260905042709 68 91 0.0 0.0 0.00 0.00 0.00 83 1015.0
20260905042210 68 142 0.0 0.0 0.00 0.00 0.00 82 1015.0
20260905041709 68 4 0.0 1.0 0.00 0.00 0.00 82 1015.0
20260905041209 68 204 0.0 0.0 0.00 0.00 0.00 81 1015.0
20260905040710 68 4 0.0 0.0 0.00 0.00 0.00 80 1015.0
20260905040209 68 262 0.0 1.0 0.00 0.00 0.01 81 1015.0
20260905035709 69 142 0.0 1.0 0.00 0.00 0.01 82 1015.0
20260905035209 69 310 0.0 0.0 0.00 0.00 0.01 80 1015.0
20260905034710 69 349 0.0 0.0 0.00 0.00 0.01 80 1015.0
20260905034209 69 38 0.0 0.0 0.00 0.00 0.01 80 1015.0
20260905033709 69 65 0.0 0.0 0.00 0.00 0.01 80 1015.0
20260905033209 69 9 0.0 0.0 0.00 0.00 0.01 80 1015.0
20260905032709 69 321 0.0 1.0 0.00 0.00 0.01 79 1015.0
20260905032209 69 3 0.0 1.0 0.00 0.00 0.01 80 1015.0
20260905031709 69 52 0.0 3.0 0.00 0.00 0.01 79 1015.0
20260905031211 69 304 0.0 3.0 0.00 0.00 0.01 81 1015.0
20260905030710 69 43 0.0 1.0 0.00 0.00 0.01 81 1015.0
20260905030209 69 5 1.0 1.0 0.00 0.00 0.01 81 1015.0
20260905025709 70 62 0.0 0.0 0.00 0.00 0.01 82 1015.0
20260905025210 70 207 0.0 0.0 0.00 0.00 0.01 83 1015.0
20260905024709 70 283 1.0 1.0 0.00 0.00 0.01 83 1015.0
20260905024210 70 327 0.0 0.0 0.00 0.00 0.01 83 1015.0
20260905023709 70 351 0.0 0.0 0.00 0.00 0.01 83 1015.0
20260905023209 70 8 0.0 0.0 0.00 0.00 0.01 84 1015.0
20260905022710 70 31 0.0 0.0 0.00 0.00 0.01 84 1015.0
20260905022210 70 122 0.0 0.0 0.00 0.00 0.01 84 1015.0
20260905021715 71 167 0.0 0.0 0.00 0.00 0.01 84 1015.0
20260905021209 71 163 0.0 0.0 0.00 0.00 0.01 84 1015.0
20260905020709 71 140 0.0 0.0 0.00 0.00 0.01 84 1015.0
20260905020214 71 178 0.0 0.0 0.00 0.00 0.01 83 1015.0
20260905015709 71 43 0.0 0.0 0.00 0.00 0.01 83 1015.0
20260905015209 71 14 0.0 0.0 0.00 0.00 0.01 83 1015.0
20260905014710 72 160 0.0 0.0 0.00 0.00 0.01 83 1015.0
20260905014209 72 106 0.0 0.0 0.00 0.00 0.01 83 1015.0
20260905013709 72 136 0.0 0.0 0.00 0.00 0.01 83 1015.0
20260905013209 72 5 0.0 0.0 0.00 0.00 0.01 83 1015.0
20260905012709 72 108 0.0 0.0 0.00 0.00 0.01 83 1015.0
20260905012210 72 31 0.0 2.0 0.00 0.00 0.01 83 1015.0
20260905011710 72 340 0.0 1.0 0.00 0.00 0.01 82 1015.0
20260905011209 72 49 0.0 0.0 0.00 0.00 0.01 82 1015.0
20260905010709 72 231 0.0 0.0 0.00 0.00 0.01 82 1015.0
20260905010209 72 43 0.0 2.0 0.00 0.00 0.01 81 1015.0
20260905005711 72 94 0.0 0.0 0.00 0.00 0.01 81 1015.0
20260905005209 72 261 0.0 2.0 0.00 0.00 0.01 82 1015.0
20260905004712 72 134 0.0 0.0 0.00 0.00 0.01 82 1015.0
20260905004209 72 131 0.0 0.0 0.00 0.00 0.01 82 1015.0
20260905003709 72 133 0.0 1.0 0.00 0.00 0.01 81 1015.0
20260905003209 73 131 1.0 1.0 0.00 0.00 0.01 82 1015.0
20260905002709 73 178 0.0 1.0 0.00 0.00 0.01 81 1015.0
20260905002209 73 62 0.0 2.0 0.00 0.00 0.01 81 1015.0
20260905001236 73 36 0.0 0.0 0.00 0.00 0.01 80 1015.0
20260905000711 73 184 1.0 1.0 0.00 0.00 0.01 80 1015.0
20260905000211 73 170 0.0 1.0 0.00 0.00 0.01 79 1015.0
20260904235710 73 204 0.0 1.0 0.00 0.00 0.01 79 1015.0
20260904235209 73 153 0.0 1.0 0.00 0.00 0.01 78 1015.0
20260904234709 74 302 0.0 1.0 0.00 0.00 0.01 78 1015.0
20260904234209 74 149 0.0 1.0 0.00 0.00 0.01 77 1015.0
20260904233711 74 235 0.0 0.0 0.00 0.00 0.01 76 1015.0
20260904233209 74 157 0.0 1.0 0.00 0.00 0.01 76 1015.0
20260904232709 74 181 0.0 1.0 0.00 0.00 0.01 75 1015.0
20260904232209 75 171 0.0 4.0 0.00 0.00 0.01 74 1015.0
20260904231710 75 190 4.0 4.0 0.00 0.00 0.01 73 1015.0
20260904231211 75 187 0.0 0.0 0.00 0.00 0.01 73 1015.0
20260904230709 75 115 1.0 2.0 0.00 0.00 0.01 71 1015.0
20260904230210 76 347 0.0 0.0 0.00 0.00 0.01 70 1015.0
20260904225709 76 118 0.0 0.0 0.00 0.00 0.01 70 1015.0
20260904225209 76 309 2.0 4.0 0.00 0.00 0.01 69 1014.0
20260904224709 76 209 0.0 0.0 0.00 0.00 0.01 69 1014.0
20260904224209 77 215 0.0 3.0 0.00 0.00 0.01 68 1014.0
20260904223709 77 38 0.0 2.0 0.00 0.00 0.01 64 1014.0
20260904223209 77 86 3.0 4.0 0.00 0.00 0.01 62 1014.0
20260904222709 77 356 2.0 4.0 0.00 0.00 0.01 63 1014.0
20260904222209 77 28 3.0 3.0 0.00 0.00 0.01 63 1014.0
20260904221711 77 300 2.0 2.0 0.00 0.00 0.01 63 1014.0
20260904221210 77 9 3.0 3.0 0.00 0.00 0.01 64 1014.0
20260904220710 77 287 0.0 0.0 0.00 0.00 0.01 67 1014.0
20260904220210 76 298 1.0 2.0 0.00 0.00 0.01 64 1014.0
20260904215709 76 32 0.0 1.0 0.00 0.00 0.01 65 1014.0
20260904215211 76 175 0.0 2.0 0.00 0.00 0.01 66 1014.0
20260904214710 76 60 1.0 2.0 0.00 0.00 0.01 66 1014.0
20260904214209 76 146 0.0 1.0 0.00 0.00 0.01 67 1014.0
20260904213709 76 163 0.0 2.0 0.00 0.00 0.01 68 1014.0
20260904213312 76 44 0.0 0.0 0.00 0.00 0.01 68 1014.0
20260904212718 76 27 0.0 0.0 0.00 0.00 0.01 68 1014.0
20260904212209 76 347 0.0 0.0 0.00 0.00 0.01 69 1014.0
20260904211709 76 166 0.0 0.0 0.00 0.00 0.01 70 1014.0
20260904211210 76 13 0.0 1.0 0.00 0.00 0.01 69 1014.0
20260904210710 76 178 2.0 2.0 0.00 0.00 0.01 70 1014.0
20260904210210 76 164 2.0 3.0 0.00 0.00 0.01 69 1014.0
20260904205710 76 173 0.0 2.0 0.00 0.00 0.01 68 1014.0
20260904205209 76 272 0.0 2.0 0.00 0.00 0.01 68 1014.0
20260904204710 76 129 0.0 2.0 0.00 0.00 0.01 68 1014.0
20260904204209 76 201 1.0 4.0 0.00 0.00 0.01 68 1014.0
20260904203710 77 32 1.0 3.0 0.00 0.00 0.01 68 1014.0
20260904203209 77 179 1.0 1.0 0.00 0.00 0.01 67 1014.0
20260904202709 77 203 3.0 3.0 0.00 0.00 0.01 67 1014.0
20260904202210 77 345 1.0 1.0 0.00 0.00 0.01 66 1015.0
20260904201710 77 281 0.0 3.0 0.00 0.00 0.01 65 1015.0
20260904201209 77 155 0.0 2.0 0.00 0.00 0.01 66 1015.0
20260904200709 78 152 3.0 3.0 0.00 0.00 0.01 64 1015.0
20260904200209 78 134 1.0 4.0 0.00 0.00 0.01 64 1015.0
20260904195710 78 296 2.0 3.0 0.00 0.00 0.01 64 1015.0
20260904195209 78 149 0.0 2.0 0.00 0.00 0.01 66 1015.0
20260904194710 78 299 3.0 3.0 0.00 0.00 0.01 64 1015.0
20260904194211 78 148 3.0 3.0 0.00 0.00 0.01 65 1015.0
20260904193710 78 143 2.0 2.0 0.00 0.00 0.01 66 1015.0
20260904193210 78 63 3.0 3.0 0.00 0.00 0.01 64 1015.0
20260904192709 78 227 2.0 2.0 0.00 0.00 0.01 65 1015.0
20260904192210 78 3 0.0 2.0 0.00 0.00 0.01 64 1015.0
20260904191709 78 333 0.0 2.0 0.00 0.00 0.01 63 1015.0
20260904191209 78 339 2.0 3.0 0.00 0.00 0.01 64 1015.0
20260904190709 78 110 2.0 3.0 0.00 0.00 0.01 62 1015.0
20260904190210 79 149 1.0 4.0 0.00 0.00 0.01 61 1015.0
20260904185710 79 24 0.0 3.0 0.00 0.00 0.01 58 1015.0
20260904185210 80 72 0.0 4.0 0.00 0.00 0.01 59 1015.0
20260904184710 80 279 0.0 0.0 0.00 0.00 0.01 59 1016.0
20260904184210 80 342 1.0 1.0 0.00 0.00 0.01 61 1016.0
20260904183709 79 237 0.0 1.0 0.00 0.00 0.01 63 1016.0
20260904183209 79 356 1.0 2.0 0.00 0.00 0.01 61 1016.0
20260904182709 79 210 0.0 2.0 0.00 0.00 0.01 63 1016.0
20260904182209 79 185 1.0 2.0 0.00 0.00 0.01 61 1016.0
20260904181710 79 324 0.0 1.0 0.00 0.00 0.01 61 1016.0
20260904181209 79 154 2.0 3.0 0.00 0.00 0.01 61 1016.0
20260904180710 80 76 1.0 3.0 0.00 0.00 0.01 57 1016.0
20260904180211 80 136 0.0 4.0 0.00 0.00 0.01 56 1016.0
20260904175709 80 233 1.0 3.0 0.00 0.00 0.01 58 1016.0
20260904175209 81 157 2.0 3.0 0.00 0.00 0.01 57 1016.0